Time,TemperatureF,DewpointF,PressureIn,WindDirection,WindDirectionDegrees,WindSpeedMPH,WindSpeedGustMPH,Humidity,HourlyPrecipIn,Conditions,Clouds,dailyrainin,SoftwareType,DateUTC
2013-06-29 00:01:00,72.0,71.0,29.61,NW,310,0.0,0.0,97,0.06,,,0.60,,2013-06-29 04:01:00,
2013-06-29 00:11:00,72.0,71.0,29.61,NW,310,0.0,0.0,97,0.06,,,0.60,,2013-06-29 04:11:00,
2013-06-29 00:24:00,72.0,71.0,29.61,NW,319,0.0,10.0,97,0.07,,,0.61,,2013-06-29 04:24:00,
2013-06-29 00:32:00,72.0,71.0,29.61,NW,319,0.0,10.0,97,0.07,,,0.61,,2013-06-29 04:32:00,
2013-06-29 00:41:00,72.0,71.0,29.61,NW,319,0.0,10.0,97,0.07,,,0.61,,2013-06-29 04:41:00,
2013-06-29 00:51:00,72.0,71.0,29.61,NW,319,0.0,10.0,97,0.07,,,0.61,,2013-06-29 04:51:00,
2013-06-29 01:01:00,72.0,71.0,29.61,NW,319,0.0,10.0,97,0.07,,,0.61,,2013-06-29 05:01:00,
2013-06-29 01:11:00,71.0,70.0,29.60,NW,313,6.0,14.0,97,0.82,,,1.41,,2013-06-29 05:11:00,
2013-06-29 01:21:00,71.0,70.0,29.60,NW,313,6.0,14.0,97,0.82,,,1.41,,2013-06-29 05:21:00,
2013-06-29 01:31:00,71.0,70.0,29.60,NW,304,0.0,14.0,96,0.86,,,1.46,,2013-06-29 05:31:00,
2013-06-29 01:41:00,70.0,69.0,29.60,WSW,256,0.0,5.0,96,0.87,,,1.48,,2013-06-29 05:41:00,
2013-06-29 01:51:00,70.0,69.0,29.60,WSW,256,0.0,5.0,96,0.87,,,1.48,,2013-06-29 05:51:00,
2013-06-29 02:01:00,70.0,69.0,29.60,WSW,256,0.0,5.0,96,0.87,,,1.48,,2013-06-29 06:01:00,
2013-06-29 02:12:00,70.0,69.0,29.60,WSW,256,0.0,5.0,96,0.87,,,1.48,,2013-06-29 06:12:00,
2013-06-29 08:22:00,71.0,71.0,29.61,SW,226,0.0,0.0,99,-99.99,,,-99.99,,2013-06-29 12:22:00,
2013-06-29 08:34:00,71.0,71.0,29.61,SW,227,0.0,1.0,99,-99.99,,,-99.99,,2013-06-29 12:34:00,
2013-06-29 08:43:00,72.0,72.0,29.61,NE,53,0.0,1.0,99,-99.99,,,-99.99,,2013-06-29 12:43:00,
2013-06-29 08:53:00,72.0,72.0,29.61,NE,50,0.0,0.0,99,-99.99,,,-99.99,,2013-06-29 12:53:00,
2013-06-29 09:02:00,73.0,73.0,29.61,ESE,106,0.0,1.0,99,-99.99,,,-99.99,,2013-06-29 13:02:00,
2013-06-29 09:34:00,73.0,72.0,29.61,South,185,0.0,4.0,98,0.00,,,-99.99,,2013-06-29 13:34:00,
2013-06-29 09:43:00,74.0,73.0,29.62,NNW,329,0.0,3.0,98,0.00,,,-99.99,,2013-06-29 13:43:00,
2013-06-29 10:44:00,75.0,73.0,29.62,NE,46,0.0,2.0,92,0.00,,,-99.99,,2013-06-29 14:44:00,
2013-06-29 10:53:00,75.0,73.0,29.62,WNW,287,0.0,3.0,92,0.00,,,-99.99,,2013-06-29 14:53:00,
2013-06-29 11:02:00,76.0,73.0,29.62,SSW,205,0.0,4.0,91,0.00,,,-99.99,,2013-06-29 15:02:00,
2013-06-29 11:11:00,76.0,73.0,29.62,SE,143,0.0,1.0,89,0.00,,,-99.99,,2013-06-29 15:11:00,
2013-06-29 11:33:00,77.0,72.0,29.61,WNW,299,0.0,2.0,86,0.00,,,-99.99,,2013-06-29 15:33:00,
2013-06-29 11:42:00,77.0,71.0,29.61,WNW,291,1.0,5.0,83,0.00,,,-99.99,,2013-06-29 15:42:00,
2013-06-29 11:53:00,78.0,73.0,29.61,West,278,0.0,6.0,84,0.00,,,-99.99,,2013-06-29 15:53:00,
2013-06-29 12:02:00,79.0,73.0,29.62,SSW,203,0.0,3.0,81,0.00,,,-99.99,,2013-06-29 16:02:00,
2013-06-29 12:12:00,79.0,72.0,29.62,WNW,301,1.0,4.0,79,0.00,,,-99.99,,2013-06-29 16:12:00,
2013-06-29 12:23:00,80.0,72.0,29.62,NE,47,0.0,1.0,77,0.00,,,-99.99,,2013-06-29 16:23:00,
2013-06-29 12:33:00,80.0,71.0,29.62,WSW,243,1.0,5.0,75,0.00,,,-99.99,,2013-06-29 16:33:00,
2013-06-29 12:43:00,81.0,72.0,29.62,West,274,0.0,4.0,75,0.00,,,-99.99,,2013-06-29 16:43:00,
2013-06-29 12:53:00,81.0,71.0,29.62,SW,222,1.0,7.0,72,0.00,,,-99.99,,2013-06-29 16:53:00,
2013-06-29 13:02:00,82.0,72.0,29.62,SSE,155,0.0,4.0,71,0.00,,,-99.99,,2013-06-29 17:02:00,
2013-06-29 13:12:00,82.0,71.0,29.62,SSW,212,0.0,9.0,69,0.00,,,-99.99,,2013-06-29 17:12:00,
2013-06-29 13:23:00,83.0,72.0,29.61,SSW,205,0.0,7.0,70,0.00,,,-99.99,,2013-06-29 17:23:00,
2013-06-29 13:34:00,83.0,73.0,29.62,SSE,157,1.0,6.0,71,0.00,,,-99.99,,2013-06-29 17:34:00,
2013-06-29 13:42:00,84.0,72.0,29.62,South,174,1.0,5.0,68,0.00,,,-99.99,,2013-06-29 17:42:00,
2013-06-29 13:52:00,83.0,71.0,29.61,SSE,156,2.0,7.0,68,0.00,,,-99.99,,2013-06-29 17:52:00,
2013-06-29 14:02:00,83.0,72.0,29.61,South,189,5.0,7.0,69,0.00,,,-99.99,,2013-06-29 18:02:00,
2013-06-29 14:12:00,83.0,71.0,29.61,South,180,1.0,5.0,67,0.00,,,-99.99,,2013-06-29 18:12:00,
2013-06-29 14:22:00,84.0,72.0,29.61,SSE,153,1.0,7.0,67,0.00,,,-99.99,,2013-06-29 18:22:00,
2013-06-29 14:34:00,84.0,71.0,29.61,SSE,147,2.0,9.0,65,0.00,,,-99.99,,2013-06-29 18:34:00,
2013-06-29 14:43:00,84.0,72.0,29.61,South,176,0.0,5.0,67,0.00,,,-99.99,,2013-06-29 18:43:00,
2013-06-29 14:53:00,84.0,74.0,29.61,South,178,0.0,6.0,71,0.00,,,-99.99,,2013-06-29 18:53:00,
2013-06-29 15:01:00,84.0,72.0,29.61,SE,141,2.0,6.0,68,0.00,,,-99.99,,2013-06-29 19:01:00,
2013-06-29 15:22:00,84.0,72.0,29.60,South,188,2.0,5.0,68,0.00,,,-99.99,,2013-06-29 19:22:00,
2013-06-29 15:34:00,85.0,72.0,29.60,SSE,159,0.0,2.0,66,0.00,,,-99.99,,2013-06-29 19:34:00,
2013-06-29 15:43:00,85.0,71.0,29.60,SSE,158,0.0,5.0,64,0.00,,,-99.99,,2013-06-29 19:43:00,
2013-06-29 15:54:00,84.0,72.0,29.60,SSE,165,3.0,7.0,68,0.00,,,-99.99,,2013-06-29 19:54:00,
2013-06-29 16:02:00,84.0,73.0,29.60,SSE,151,0.0,7.0,70,0.00,,,-99.99,,2013-06-29 20:02:00,
2013-06-29 16:12:00,84.0,73.0,29.60,South,175,2.0,6.0,69,0.00,,,-99.99,,2013-06-29 20:12:00,
2013-06-29 16:23:00,84.0,74.0,29.60,South,185,0.0,1.0,71,0.00,,,-99.99,,2013-06-29 20:23:00,
2013-06-29 16:33:00,84.0,73.0,29.60,SSE,162,4.0,10.0,70,0.00,,,-99.99,,2013-06-29 20:33:00,
2013-06-29 16:43:00,84.0,73.0,29.60,South,176,0.0,10.0,69,0.00,,,-99.99,,2013-06-29 20:43:00,
2013-06-29 16:52:00,84.0,73.0,29.60,SSE,150,0.0,10.0,70,0.00,,,-99.99,,2013-06-29 20:52:00,
2013-06-29 17:02:00,84.0,74.0,29.60,SSE,162,0.0,6.0,72,0.00,,,-99.99,,2013-06-29 21:02:00,
2013-06-29 17:11:00,84.0,73.0,29.60,SSW,199,1.0,6.0,69,0.00,,,-99.99,,2013-06-29 21:11:00,
2013-06-29 17:22:00,85.0,73.0,29.60,South,187,0.0,5.0,68,0.00,,,-99.99,,2013-06-29 21:22:00,
2013-06-29 17:32:00,84.0,72.0,29.60,SSW,204,0.0,6.0,68,0.00,,,-99.99,,2013-06-29 21:32:00,
2013-06-29 17:42:00,84.0,72.0,29.60,South,170,1.0,6.0,68,0.00,,,-99.99,,2013-06-29 21:42:00,
2013-06-29 17:52:00,85.0,73.0,29.61,SSW,200,2.0,7.0,67,0.00,,,-99.99,,2013-06-29 21:52:00,
2013-06-29 18:01:00,85.0,72.0,29.60,SW,220,2.0,7.0,66,0.00,,,-99.99,,2013-06-29 22:01:00,
2013-06-29 18:11:00,85.0,73.0,29.60,SSE,168,0.0,5.0,67,0.00,,,-99.99,,2013-06-29 22:11:00,
2013-06-29 18:22:00,86.0,74.0,29.60,SW,220,0.0,7.0,67,0.00,,,-99.99,,2013-06-29 22:22:00,
2013-06-29 18:33:00,86.0,73.0,29.60,SSE,151,1.0,5.0,66,0.00,,,-99.99,,2013-06-29 22:33:00,
2013-06-29 18:43:00,85.0,71.0,29.60,SSW,201,1.0,5.0,64,0.00,,,-99.99,,2013-06-29 22:43:00,
2013-06-29 18:53:00,85.0,71.0,29.60,SSW,197,3.0,10.0,64,0.00,,,-99.99,,2013-06-29 22:53:00,
2013-06-29 19:02:00,85.0,71.0,29.61,SSE,162,1.0,10.0,64,0.00,,,-99.99,,2013-06-29 23:02:00,
2013-06-29 19:12:00,84.0,71.0,29.61,SSE,160,0.0,6.0,65,0.00,,,-99.99,,2013-06-29 23:12:00,
2013-06-29 19:23:00,84.0,72.0,29.61,South,191,0.0,3.0,67,0.00,,,-99.99,,2013-06-29 23:23:00,
2013-06-29 19:34:00,83.0,73.0,29.61,SSE,158,0.0,7.0,71,0.00,,,-99.99,,2013-06-29 23:34:00,
2013-06-29 19:43:00,82.0,73.0,29.61,South,180,0.0,9.0,74,0.00,,,-99.99,,2013-06-29 23:43:00,
2013-06-29 19:52:00,81.0,73.0,29.62,SSE,152,2.0,6.0,76,0.00,,,-99.99,,2013-06-29 23:52:00,
2013-06-29 20:02:00,81.0,73.0,29.62,South,173,0.0,9.0,76,0.00,,,-99.99,,2013-06-30 00:02:00,
2013-06-29 20:12:00,81.0,73.0,29.62,SSE,154,1.0,7.0,77,0.00,,,-99.99,,2013-06-30 00:12:00,
2013-06-29 20:22:00,80.0,72.0,29.62,South,175,0.0,6.0,77,0.00,,,-99.99,,2013-06-30 00:22:00,
2013-06-29 20:33:00,80.0,72.0,29.62,SSE,155,0.0,3.0,78,0.00,,,-99.99,,2013-06-30 00:33:00,
2013-06-29 20:43:00,80.0,73.0,29.62,SSE,155,0.0,3.0,79,0.00,,,-99.99,,2013-06-30 00:43:00,
2013-06-29 20:52:00,79.0,72.0,29.63,SSE,153,1.0,5.0,80,0.00,,,-99.99,,2013-06-30 00:52:00,
2013-06-29 21:01:00,79.0,72.0,29.63,SSE,155,0.0,3.0,80,0.00,,,-99.99,,2013-06-30 01:01:00,
2013-06-29 21:11:00,79.0,73.0,29.63,SSE,154,0.0,3.0,81,0.00,,,-99.99,,2013-06-30 01:11:00,
2013-06-29 21:22:00,78.0,72.0,29.64,SSE,153,0.0,1.0,82,0.00,,,-99.99,,2013-06-30 01:22:00,
2013-06-29 21:33:00,78.0,72.0,29.64,SSE,162,0.0,1.0,83,0.00,,,-99.99,,2013-06-30 01:33:00,
2013-06-29 21:44:00,78.0,73.0,29.64,SSE,163,1.0,4.0,84,0.00,,,-99.99,,2013-06-30 01:44:00,
2013-06-29 21:53:00,78.0,73.0,29.64,SSE,155,0.0,5.0,85,0.00,,,-99.99,,2013-06-30 01:53:00,
2013-06-29 22:02:00,77.0,72.0,29.65,SSE,168,4.0,11.0,85,0.00,,,-99.99,,2013-06-30 02:02:00,
2013-06-29 22:11:00,77.0,72.0,29.65,SSE,164,0.0,7.0,86,0.00,,,-99.99,,2013-06-30 02:11:00,
2013-06-29 22:24:00,77.0,73.0,29.65,South,171,1.0,9.0,87,0.00,,,-99.99,,2013-06-30 02:24:00,
2013-06-29 22:34:00,77.0,73.0,29.66,SSE,153,3.0,7.0,87,0.00,,,-99.99,,2013-06-30 02:34:00,
2013-06-29 22:43:00,76.0,72.0,29.66,SSE,164,0.0,6.0,88,0.00,,,-99.99,,2013-06-30 02:43:00,
2013-06-29 22:53:00,76.0,72.0,29.66,SSE,157,0.0,5.0,88,0.00,,,-99.99,,2013-06-30 02:53:00,
2013-06-29 23:02:00,76.0,73.0,29.67,SSE,157,2.0,5.0,89,0.00,,,-99.99,,2013-06-30 03:02:00,
2013-06-29 23:12:00,76.0,73.0,29.67,South,183,0.0,6.0,89,0.00,,,-99.99,,2013-06-30 03:12:00,
2013-06-29 23:23:00,75.0,72.0,29.67,South,187,0.0,5.0,89,0.00,,,-99.99,,2013-06-30 03:23:00,
2013-06-29 23:33:00,75.0,72.0,29.67,South,174,1.0,4.0,90,0.00,,,-99.99,,2013-06-30 03:33:00,
2013-06-29 23:43:00,75.0,72.0,29.67,SSE,162,4.0,7.0,90,0.00,,,-99.99,,2013-06-30 03:43:00,
2013-06-29 23:53:00,75.0,72.0,29.67,SSE,165,2.0,5.0,91,0.00,,,-99.99,,2013-06-30 03:53:00,